Location: *
(51.8167°N, 12.5000°E)
Time: 21:26:29
(UTC+00:00)

CZ-2C R/B - Pass Details

Date: 16 September 2019
Orbit: 785 x 870 km, 98.3° (Epoch: 20 October)

Event Time Altitude Azimuth Distance (km) Brightness Sun altitude
Rises 19:25:33 0° 20° (NNE) 3,421 6.0 -18.7°
Reaches altitude 10° 19:28:09 10° 30° (NNE) 2,492 5.2 -19.1°
Maximum altitude 19:33:09 34° 94° (E) 1,393 3.4 -19.7°
Enters shadow 19:33:18 34° 97° (E) 1,394 3.3 -19.8°
